Location: Columbia
(38.9520°N, 92.3340°W)
Time: 10:55:13
(UTC-05:00)

Iridium 52 - Visible Passes

Search period start: 01 August 2014 00:00
Search period end: 11 August 2014 00:00
Orbit: 776 x 779 km, 86.4° (Epoch: 31 July)

Date Brightness Start Highest point End Pass type
(mag) Time Alt. Az. Time Alt. Az. Time Alt. Az.
01 Aug 9.1 22:24:42 10° WNW 22:25:53 11° WNW 22:27:04 10° W visible
02 Aug 8.5 21:48:56 10° NW 21:52:43 21° W 21:56:29 10° SW visible
03 Aug 7.6 21:14:39 10° NNW 21:19:26 38° W 21:24:11 10° SSW visible
04 Aug 6.4 20:40:49 10° N 20:46:01 72° W 20:51:11 10° S visible
05 Aug 8.9 21:49:57 10° NW 21:52:36 14° WNW 21:55:15 10° WSW visible
06 Aug 8.3 21:15:07 10° NNW 21:19:23 26° W 21:23:39 10° SW visible
07 Aug 7.2 20:41:03 10° NNW 20:46:03 49° W 20:51:02 10° SSW visible
09 Aug 8.8 21:15:50 10° NW 21:19:18 18° W 21:22:45 10° WSW visible
10 Aug 8.0 20:41:24 10° NNW 20:46:02 33° W 20:50:39 10° SSW visible
